STARLINK-11255, 60730

Orbit data source: Space-Track

STARLINK-11255, 60730 is a payload satellite owned by SpaceX/Seattle (US) in LEO that was launched on Wed, 28 Aug 2024 UTC via an FALCON 9 launch vehicle from the Air Force Eastern Test Range (AFETR). Payload-class satellites include a variety of spacecraft equipped with specific instruments for various scientific and technological missions. These include communications satellites like Starlink; space stations such as the ISS; scientific satellites like the Hubble; Earth observation satellites from companies like Planet Labs, Umbra, and HawkEye 360; GPS; miniature CubeSats for education and research; and military/defense satellites.

Loading next visibility...
Identifier
60730, 2024-152L
Orbit
LEO
Country
Flag of USUS
Related business
Manufacturer
SpaceX/Seattle
Mission
Operational Commercial Communications
Bus & Motor
STARLINK V2MD, Unknown motor
Mass
960 kg wet, ~910 kg dry
Launch date (UTC)
2024-08-28 (2 years ago)
Launch vehicle
FALCON 9
Launch site
Air Force Eastern Test Range (AFETR)
Object type
Payload
Rocket body
Debris
Shape & HBR
Box + 2 Pan, 18.1 m
Radar Cross Section
36.964 m², Large (>1 m²)

Expand to show TLE details & history
Last TLE update: 12 hours ago

TLE from 12 hours ago
0 STARLINK-11255
1 60730U 24152L   26127.42577954  .00001485  00000-0  17107-4 0  9999
2 60730  53.1585 186.4552 0001069  81.1058 279.0081 15.69715976 98072
Epoch: 2026-05-07T10:13Z
TLE epoch observation values (Epoch: 2026-05-07T10:13:07.352Z)
Latitude
-0°
Longitude
167.90247°
Altitude
360.512 km
Speed
7.694 km/s
True Right ascension
12h 25m 49s
True Declination
0° 00' 00"
Sunlit
Object was in full shadow at epoch
Visualization orbit readout
Latitude
Unknown
Longitude
Unknown
Altitude
Unknown
Speed
Unknown
Apparent Right ascension
Unknown
Apparent Declination
Unknown
Sunlit
N/A
Visualization observer readout
Local Sidereal Time
06:15:03
Azimuth
Unknown
Elevation
Unknown
Doppler factor
Unknown
Orbital elements
Apogee altitude
360.691 km
Perigee altitude
359.25 km
Semi-major axis
6,738.108 km
Eccentricity
0.00011
Inclination
53.1585°
RAAN
186.4552°
Arg. of periapsis
81.1058°
True anomaly
278.996°
Mean anomaly
279.0081°
Eccentric anomaly
279.00205°
Mean motion
3.92407 °/min
Orbital period
91.74 mins
BSTAR
0.000017107
Loading maneuver chart data...
Computing Atmospheric mass density...
Loading historical data...
Loading historical data...
Loading historical data...
Loading historical data...
Loading historical data...
Loading historical data...
Loading historical data...

Documentation

Showing up to 5 results
|